Location: Ash Shall?l al Awwal
(24.0167°N, 32.8667°E)
Time: 03:56:06
(UTC+00:00)

Cosmos 1939 Rocket - Pass Details

Date: 02 March 2021
Orbit: 534 x 582 km, 97.4° (Epoch: 12 April)

Event Time Altitude Azimuth Distance (km) Brightness Sun altitude
Rises 16:18:09 0° 183° (S) 2,682 6.4 -6.8°
Reaches altitude 10° 16:20:22 10° 191° (S) 1,788 5.6 -7.3°
Maximum altitude 16:23:59 39° 261° (W) 809 4.4 -8.1°
Drops below altitude 10° 16:27:36 10° 331° (NNW) 1,785 5.8 -9.0°
Sets 16:29:49 0° 339° (NNW) 2,677 6.6 -9.5°
